KE5AKC Weather Reports


Display with metric or nautical units.
time (UTC)temp
F
wind
direction
speed
MPH
gust
MPH
rain 1hr
in
rain 24hr
in
rain mn
in
humidity
%
barometer
mb
20260505124817 75 138 2.0 3.0 0.00 0.00 0.00 84 1009.0
20260505124314 74 241 1.0 2.0 0.00 0.00 0.00 84 1009.0
20260505123810 74 150 3.0 5.0 0.00 0.00 0.00 85 1009.0
20260505123307 74 314 0.0 0.0 0.00 0.00 0.00 85 1009.0
20260505122803 74 258 1.0 1.0 0.00 0.00 0.00 85 1009.0
20260505122301 74 243 3.0 3.0 0.00 0.00 0.00 85 1009.0
20260505121757 74 280 2.0 3.0 0.00 0.00 0.00 85 1008.6
20260505121254 74 189 2.0 2.0 0.00 0.00 0.00 85 1008.6
20260505120750 74 220 3.0 3.0 0.00 0.00 0.00 85 1008.6
20260505120247 74 124 3.0 7.0 0.00 0.00 0.00 85 1008.6
20260505115745 74 347 1.0 2.0 0.00 0.00 0.00 85 1008.6
20260505115243 73 206 3.0 5.0 0.00 0.00 0.00 85 1009.0
20260505114740 73 150 1.0 2.0 0.00 0.00 0.00 85 1009.0
20260505114236 73 216 1.0 2.0 0.00 0.00 0.00 85 1009.0
20260505113733 73 224 1.0 2.0 0.00 0.00 0.00 85 1008.6
20260505113230 73 209 1.0 1.0 0.00 0.00 0.00 84 1008.6
20260505112726 73 226 1.0 2.0 0.00 0.00 0.00 84 1008.3
20260505112224 73 230 1.0 1.0 0.00 0.00 0.00 84 1008.3
20260505111723 73 264 0.0 1.0 0.00 0.00 0.00 84 1008.3
20260505111220 73 154 5.0 7.0 0.00 0.00 0.00 84 1008.3
20260505110715 73 263 1.0 2.0 0.00 0.00 0.00 84 1008.6
20260505110214 73 284 1.0 1.0 0.00 0.00 0.00 84 1008.3
20260505102149 73 159 4.0 5.0 0.00 0.00 0.00 85 1008.6
20260505101647 73 179 1.0 2.0 0.00 0.00 0.00 85 1008.6
20260505101143 73 273 0.0 1.0 0.00 0.00 0.00 85 1009.0
20260505100639 73 212 3.0 5.0 0.00 0.00 0.00 85 1009.0
20260505100137 73 223 0.0 1.0 0.00 0.00 0.00 85 1009.0
20260505095632 73 37 0.0 1.0 0.00 0.00 0.00 85 1008.6
20260505095130 72 27 2.0 2.0 0.00 0.00 0.00 85 1008.6
20260505094626 72 181 1.0 1.0 0.00 0.00 0.00 85 1008.6
20260505094122 72 140 1.0 2.0 0.00 0.00 0.00 85 1008.6
20260505093619 72 171 2.0 3.0 0.00 0.00 0.00 86 1009.0
20260505093116 72 237 1.0 1.0 0.00 0.00 0.00 86 1009.0
20260505092613 72 225 3.0 3.0 0.00 0.00 0.00 86 1009.0
20260505092112 72 191 2.0 2.0 0.00 0.00 0.00 86 1008.6
20260505091608 71 246 2.0 2.0 0.00 0.00 0.00 86 1009.0
20260505091106 71 261 0.0 0.0 0.00 0.00 0.00 87 1008.6
20260505090604 71 119 1.0 2.0 0.00 0.00 0.00 86 1009.0
20260505085559 71 255 1.0 1.0 0.00 0.00 0.00 86 1009.0
20260505085057 71 206 1.0 3.0 0.00 0.00 0.00 86 1009.0
20260505084555 71 119 2.0 3.0 0.00 0.00 0.00 85 1009.0
20260505084053 71 336 0.0 0.0 0.00 0.00 0.00 85 1009.3
20260505083550 71 242 1.0 2.0 0.00 0.00 0.00 85 1009.3
20260505083046 71 220 1.0 1.0 0.00 0.00 0.00 85 1009.0
20260505082542 71 272 1.0 2.0 0.00 0.00 0.00 85 1009.0
20260505082039 71 282 2.0 3.0 0.00 0.00 0.00 85 1009.0
20260505081535 71 243 1.0 2.0 0.00 0.00 0.00 85 1009.3
20260505081033 71 129 1.0 1.0 0.00 0.00 0.00 85 1009.3
20260505080529 71 223 1.0 1.0 0.00 0.00 0.00 85 1009.3
20260505080026 71 220 1.0 1.0 0.00 0.00 0.00 85 1009.3
20260505075522 71 240 3.0 5.0 0.00 0.00 0.00 85 1009.3
20260505075018 71 132 1.0 1.0 0.00 0.00 0.00 85 1009.3
20260505074516 71 185 1.0 1.0 0.00 0.00 0.00 84 1009.3
20260505074013 71 168 2.0 3.0 0.00 0.00 0.00 84 1009.7
20260505073510 71 184 1.0 2.0 0.00 0.00 0.00 84 1009.3
20260505073009 71 279 2.0 3.0 0.00 0.00 0.00 84 1009.7
20260505072504 71 154 2.0 3.0 0.00 0.00 0.00 84 1009.7
20260505072000 71 170 1.0 1.0 0.00 0.00 0.00 84 1009.7
20260505071455 71 195 1.0 2.0 0.00 0.00 0.00 84 1009.7
20260505070954 71 178 2.0 3.0 0.00 0.00 0.00 84 1009.7
20260505070450 71 186 1.0 1.0 0.00 0.00 0.00 84 1010.0
20260505065946 71 189 2.0 3.0 0.00 0.00 0.00 84 1009.7
20260505065443 71 163 4.0 6.0 0.00 0.00 0.00 84 1010.0
20260505064940 71 154 3.0 3.0 0.00 0.00 0.00 83 1010.0
20260505064437 71 262 0.0 1.0 0.00 0.00 0.00 83 1010.0
20260505063935 71 283 1.0 1.0 0.00 0.00 0.00 83 1010.0
20260505063431 71 254 1.0 1.0 0.00 0.00 0.00 83 1010.0
20260505062928 71 168 2.0 2.0 0.00 0.00 0.00 83 1010.0
20260505062425 71 268 2.0 2.0 0.00 0.00 0.00 82 1010.0
20260505061921 71 133 3.0 3.0 0.00 0.00 0.00 82 1010.0
20260505061420 71 162 1.0 1.0 0.00 0.00 0.00 82 1010.0
20260505060917 71 230 2.0 2.0 0.00 0.00 0.00 82 1010.7
20260505060414 71 195 5.0 8.0 0.00 0.00 0.00 82 1010.3
20260505055910 71 247 1.0 2.0 0.00 0.00 0.00 82 1010.3
20260505055406 71 162 3.0 3.0 0.00 0.00 0.00 82 1010.3
20260505054903 71 172 1.0 2.0 0.00 0.00 0.00 81 1010.3
20260505054400 71 150 1.0 2.0 0.00 0.00 0.00 81 1010.3
20260505053859 71 195 2.0 2.0 0.00 0.00 0.00 81 1010.7
20260505053355 71 235 2.0 3.0 0.00 0.00 0.00 81 1010.7
20260505052852 71 204 1.0 2.0 0.00 0.00 0.00 80 1010.7
20260505052349 71 156 0.0 2.0 0.00 0.00 0.00 80 1010.7
20260505051846 71 120 1.0 1.0 0.00 0.00 0.00 80 1011.0
20260505051343 71 266 2.0 3.0 0.00 0.00 0.00 79 1010.7
20260505050841 71 225 2.0 2.0 0.00 0.00 0.00 79 1010.7
20260505050340 71 149 2.0 2.0 0.00 0.00 0.00 79 1010.7
20260505041307 73 166 3.0 3.0 0.00 0.00 0.00 75 1010.7
20260505040804 73 210 1.0 2.0 0.00 0.00 0.00 75 1011.0
20260505040301 73 126 4.0 6.0 0.00 0.00 0.00 74 1010.7
20260505035758 73 156 3.0 3.0 0.00 0.00 0.00 74 1011.0
20260505035254 73 147 5.0 7.0 0.00 0.00 0.00 74 1011.0
20260505034751 73 153 4.0 5.0 0.00 0.00 0.00 74 1010.7
20260505034248 73 282 4.0 5.0 0.00 0.00 0.00 74 1011.0
20260505033744 73 151 3.0 5.0 0.00 0.00 0.00 73 1011.3
20260505033242 73 58 1.0 1.0 0.00 0.00 0.00 73 1011.3
20260505032740 73 264 1.0 2.0 0.00 0.00 0.00 73 1011.3
20260505032236 73 161 5.0 8.0 0.00 0.00 0.00 73 1011.3
20260505031733 74 205 5.0 7.0 0.00 0.00 0.00 72 1011.3
20260505031229 74 262 3.0 5.0 0.00 0.00 0.00 72 1011.0
20260505030726 74 132 1.0 1.0 0.00 0.00 0.00 72 1011.0
20260505030223 74 236 3.0 5.0 0.00 0.00 0.00 72 1011.0
20260505025718 73 238 3.0 5.0 0.00 0.00 0.00 72 1011.0
20260505025217 73 197 2.0 3.0 0.00 0.00 0.00 72 1011.0
20260505024715 74 122 3.0 7.0 0.00 0.00 0.00 72 1011.0
20260505024211 74 268 0.0 1.0 0.00 0.00 0.00 72 1011.3
20260505023709 74 114 1.0 2.0 0.00 0.00 0.00 72 1011.0
20260505023206 74 173 7.0 9.0 0.00 0.00 0.00 71 1011.0
20260505022704 74 127 4.0 6.0 0.00 0.00 0.00 71 1011.0
20260505022200 74 293 2.0 3.0 0.00 0.00 0.00 71 1011.0
20260505021657 74 242 3.0 3.0 0.00 0.00 0.00 71 1010.7
20260505021154 74 197 1.0 2.0 0.00 0.00 0.00 71 1010.7
20260505020649 74 136 3.0 3.0 0.00 0.00 0.00 70 1011.0
20260505020145 74 184 2.0 2.0 0.00 0.00 0.00 70 1010.7
20260505015643 74 261 5.0 7.0 0.00 0.00 0.00 70 1010.7
20260505015139 74 193 3.0 5.0 0.00 0.00 0.00 70 1010.7
20260505014636 74 176 5.0 7.0 0.00 0.00 0.00 70 1010.3
20260505014133 74 148 9.0 11.0 0.00 0.00 0.00 71 1010.3
20260505013631 74 191 0.0 1.0 0.00 0.00 0.00 71 1010.7
20260505013128 74 210 3.0 5.0 0.00 0.00 0.00 70 1010.3
20260505012626 74 177 3.0 3.0 0.00 0.00 0.00 70 1010.7
20260505012122 74 163 3.0 5.0 0.00 0.00 0.00 70 1010.7
20260505011618 74 253 1.0 3.0 0.00 0.00 0.00 69 1010.7
20260505011116 75 212 2.0 2.0 0.00 0.00 0.00 69 1010.7
20260505010610 75 243 1.0 1.0 0.00 0.00 0.00 68 1010.7
20260505005558 75 176 5.0 6.0 0.00 0.00 0.00 67 1010.7
20260505005055 76 162 1.0 1.0 0.00 0.00 0.00 66 1010.3
20260505004552 76 96 2.0 5.0 0.00 0.00 0.00 66 1010.3
20260505004049 76 211 2.0 5.0 0.00 0.00 0.00 66 1010.3
20260505003547 76 147 3.0 3.0 0.00 0.00 0.00 65 1010.3
20260505003044 76 171 4.0 5.0 0.00 0.00 0.00 65 1010.3
20260505002543 76 247 3.0 3.0 0.00 0.00 0.00 65 1010.3
20260505002038 76 138 4.0 6.0 0.00 0.00 0.00 65 1010.3
20260505001534 76 14 1.0 1.0 0.00 0.00 0.00 65 1010.3
20260505001031 77 151 5.0 6.0 0.00 0.00 0.00 64 1010.7
20260505000529 77 162 3.0 5.0 0.00 0.00 0.00 64 1010.7
20260505000026 77 143 5.0 7.0 0.00 0.00 0.00 64 1010.7
20260504235523 77 173 4.0 6.0 0.00 0.00 0.00 64 1010.3
20260504235020 77 174 2.0 5.0 0.00 0.00 0.00 63 1010.3
20260504234517 77 184 5.0 7.0 0.00 0.00 0.00 63 1010.7
20260504234014 77 167 3.0 3.0 0.00 0.00 0.00 63 1010.7
20260504233509 78 195 6.0 7.0 0.00 0.00 0.00 62 1010.7
20260504233006 78 149 4.0 7.0 0.00 0.00 0.00 61 1010.7
20260504232503 78 288 2.0 2.0 0.00 0.00 0.00 61 1010.7
20260504232001 78 170 7.0 8.0 0.00 0.00 0.00 60 1010.7
20260504231456 78 208 1.0 2.0 0.00 0.00 0.00 61 1010.7
20260504230953 78 153 5.0 6.0 0.00 0.00 0.00 60 1010.7
20260504230450 78 86 6.0 8.0 0.00 0.00 0.00 60 1010.7
20260504225949 79 230 7.0 8.0 0.00 0.00 0.00 60 1010.7
20260504225445 80 254 4.0 5.0 0.00 0.00 0.00 59 1010.7
20260504224942 79 114 4.0 7.0 0.00 0.00 0.00 60 1011.0
20260504224438 79 159 4.0 8.0 0.00 0.00 0.00 58 1011.0
20260504223936 79 120 3.0 3.0 0.00 0.00 0.00 61 1011.3
20260504223432 79 217 3.0 7.0 0.00 0.00 0.00 61 1011.3
20260504222927 78 132 2.0 2.0 0.00 0.00 0.00 61 1011.3
20260504222425 78 160 4.0 5.0 0.00 0.00 0.00 61 1011.3
20260504221923 79 170 10.0 13.0 0.00 0.00 0.00 60 1011.7
20260504221420 79 153 6.0 8.0 0.00 0.00 0.00 59 1011.0
20260504220917 79 102 3.0 3.0 0.00 0.00 0.00 59 1011.3
20260504220413 79 102 2.0 3.0 0.00 0.00 0.00 59 1011.3
20260504215910 80 163 5.0 8.0 0.00 0.00 0.00 58 1011.3
20260504215407 80 147 6.0 7.0 0.00 0.00 0.00 57 1011.7
20260504214903 80 268 3.0 3.0 0.00 0.00 0.00 57 1011.3
20260504214400 80 214 2.0 3.0 0.00 0.00 0.00 57 1011.3
20260504213857 80 191 4.0 6.0 0.00 0.00 0.00 57 1011.7
20260504213352 80 81 7.0 8.0 0.00 0.00 0.00 57 1011.3
20260504212850 80 190 4.0 5.0 0.00 0.00 0.00 57 1011.7
20260504212346 80 150 3.0 3.0 0.00 0.00 0.00 56 1011.7
20260504211844 81 154 5.0 8.0 0.00 0.00 0.00 55 1012.0
20260504211340 80 226 3.0 5.0 0.00 0.00 0.00 55 1011.7
20260504210838 81 139 5.0 9.0 0.00 0.00 0.00 54 1011.7
20260504210334 82 172 4.0 7.0 0.00 0.00 0.00 54 1012.0
20260504205832 81 129 6.0 8.0 0.00 0.00 0.00 53 1012.4
20260504205329 81 178 6.0 7.0 0.00 0.00 0.00 53 1012.0
20260504204827 81 111 7.0 10.0 0.00 0.00 0.00 54 1012.4
20260504204326 82 72 4.0 6.0 0.00 0.00 0.00 53 1012.0
20260504203824 83 172 4.0 7.0 0.00 0.00 0.00 51 1012.4
20260504203321 83 196 6.0 9.0 0.00 0.00 0.00 50 1012.4
20260504202817 83 172 5.0 9.0 0.00 0.00 0.00 49 1012.4
20260504202314 84 154 3.0 6.0 0.00 0.00 0.00 48 1012.4
20260504201811 83 139 3.0 3.0 0.00 0.00 0.00 50 1012.4
20260504201308 83 214 3.0 5.0 0.00 0.00 0.00 48 1012.7
20260504200805 83 334 1.0 2.0 0.00 0.00 0.00 49 1012.7
20260504200302 82 281 1.0 2.0 0.00 0.00 0.00 50 1012.7
20260504195758 82 176 5.0 6.0 0.00 0.00 0.00 48 1013.0
20260504195254 82 177 4.0 6.0 0.00 0.00 0.00 50 1013.0
20260504194751 82 185 3.0 3.0 0.00 0.00 0.00 50 1012.7
20260504194247 83 212 5.0 7.0 0.00 0.00 0.00 48 1013.0
20260504193743 82 321 2.0 2.0 0.00 0.00 0.00 49 1013.0
20260504193241 83 261 3.0 5.0 0.00 0.00 0.00 47 1013.4
20260504192739 83 220 5.0 8.0 0.00 0.00 0.00 45 1013.0
20260504192237 83 246 4.0 5.0 0.00 0.00 0.00 47 1013.4
20260504191736 84 166 2.0 2.0 0.00 0.00 0.00 45 1013.7
20260504191232 83 274 1.0 1.0 0.00 0.00 0.00 45 1013.7
20260504190727 83 172 2.0 3.0 0.00 0.00 0.00 45 1013.4
20260504190224 83 188 6.0 7.0 0.00 0.00 0.00 46 1013.7
20260504185721 83 267 5.0 7.0 0.00 0.00 0.00 45 1013.7
20260504185218 82 274 2.0 2.0 0.00 0.00 0.00 49 1013.7
20260504184713 81 174 4.0 7.0 0.00 0.00 0.00 48 1013.7
20260504184210 81 254 5.0 8.0 0.00 0.00 0.00 50 1014.1
20260504183706 81 132 7.0 9.0 0.00 0.00 0.00 50 1013.7
20260504183203 82 179 3.0 3.0 0.00 0.00 0.00 48 1013.7
20260504182701 81 169 7.0 8.0 0.00 0.00 0.00 48 1013.7
20260504182158 82 124 5.0 6.0 0.00 0.00 0.00 47 1014.1
20260504181655 82 211 3.0 3.0 0.00 0.00 0.00 46 1014.4
20260504181153 82 111 2.0 2.0 0.00 0.00 0.00 47 1014.4
20260504180652 81 200 4.0 6.0 0.00 0.00 0.00 47 1014.1
20260504180150 81 235 4.0 6.0 0.00 0.00 0.00 47 1014.4
20260504175647 81 95 4.0 6.0 0.00 0.00 0.00 48 1014.4
20260504175143 81 304 1.0 2.0 0.00 0.00 0.00 48 1014.1
20260504174642 82 229 3.0 6.0 0.00 0.00 0.00 46 1014.4
20260504174138 81 225 0.0 1.0 0.00 0.00 0.00 47 1014.4
20260504173635 81 187 3.0 5.0 0.00 0.00 0.00 47 1015.1
20260504173133 80 60 3.0 3.0 0.00 0.00 0.00 48 1014.4
20260504172629 80 200 4.0 7.0 0.00 0.00 0.00 47 1014.7
20260504172125 81 213 3.0 5.0 0.00 0.00 0.00 47 1015.1
20260504171622 80 246 2.0 5.0 0.00 0.00 0.00 49 1015.1
20260504171119 81 186 2.0 3.0 0.00 0.00 0.00 47 1015.1
20260504170615 80 138 3.0 3.0 0.00 0.00 0.00 50 1015.4
20260504170113 79 123 5.0 5.0 0.00 0.00 0.00 50 1015.1
20260504150952 76 269 4.0 6.0 0.00 0.00 0.00 55 1016.1
20260504150450 75 234 1.0 2.0 0.00 0.00 0.00 57 1015.7
20260504140910 73 45 2.0 2.0 0.00 0.00 0.00 56 1016.1
20260504140406 72 165 4.0 7.0 0.00 0.00 0.00 56 1016.1
20260504130325 68 156 1.0 1.0 0.00 0.00 0.00 72 1016.1